RH
18 25 31 25 21 20 20 21 22 19 20 20 24 52 52 51 57 62 62 65 64 56 48 43 46 51 55 57 60 67 69 71 70 71 67 64 67 53 54 53 52 60 62 61
22 29 20 20 20 22 24 24 30 22 22 21 45 57 55 55 57 61 70 74 69 63 50 45 46 50 56 58 58 62 71 79 80 71 69 64 63 62 56 58 55 52 60 63
26 22 18 20 24 26 27 30 30 31 27 25 46 59 62 56 56 60 66 72 69 71 68 46 45 48 55 61 58 60 66 82 83 73 70 71 68 68 66 62 60 58 53 56
21 19 20 22 24 27 34 28 30 33 36 39 22 62 78 73 74 61 70 78 76 74 70 67 56 49 49 58 62 58 64 76 91 82 85 75 78 70 69 67 64 60 61 57
21 24 26 27 24 26 32 27 32 34 38 45 51 76 77 73 70 78 67 75 79 75 76 74 74 58 52 52 57 59 62 68 81 99 98 95 92 69 66 66 69 65 60 63
22 18 20 23 21 26 26 28 33 33 40 82 49 53 95 95 87 76 62 70 82 81 79 79 76 69 57 53 57 55 60 63 72 87 99 100 100 100 89 75 87 84 72 67
22 23 18 20 25 24 28 44 74 67 81 83 50 78 93 81 76 79 78 80 78 79 81 83 86 80 75 63 58 60 56 62 67 75 85 96 98 100 100 100 99 99 97 88
37 35 22 19 22 22 27 41 78 70 81 62 56 94 90 74 72 71 73 76 75 83 83 81 82 84 83 78 66 64 61 59 66 69 78 82 90 87 98 100 100 100 100 100
32 42 19 20 19 20 28 61 29 61 57 76 91 93 74 69 74 74 70 76 75 82 83 82 76 67 73 76 74 68 65 63 63 68 68 74 76 82 86 83 98 100 98 95
24 40 22 18 21 20 34 30 69 86 82 79 87 84 94 87 79 72 81 74 72 84 83 82 77 74 70 63 57 64 66 64 65 64 68 69 72 66 65 73 86 86 93 96
21 46 31 19 29 29 40 52 75 73 81 86 95 97 57 69 74 79 78 67 62 84 87 84 79 72 73 66 58 50 47 62 61 62 64 69 70 73 63 63 70 84 86 86
36 45 59 34 20 18 24 33 58 90 92 86 87 93 45 55 53 54 52 50 47 57 78 78 79 74 77 65 64 61 48 41 46 51 59 65 72 76 78 73 74 70 74 83
31 63 69 39 36 20 27 36 47 66 82 88 88 91 48 30 32 27 28 26 29 31 45 53 70 71 72 65 58 61 52 46 43 49 49 59 69 75 82 70 87 71 69 62
42 49 59 75 50 44 38 35 38 55 88 79 81 65 46 37 27 25 26 28 29 33 33 35 37 39 39 36 36 44 39 39 40 45 57 61 64 64 68 66 74 70 72 67
50 61 42 35 25 20 22 25 30 41 44 57 46 38 33 34 25 25 24 27 27 29 31 33 36 34 32 32 37 39 39 40 42 46 56 57 60 61 63 64 70 72 69 76
43 69 52 64 38 36 27 25 23 25 32 36 32 30 28 26 24 25 24 30 28 28 30 30 30 34 35 36 43 44 44 45 49 53 57 58 58 58 61 67 76 68 70 79
59 72 70 81 36 35 52 39 26 25 25 25 35 34 24 26 26 23 38 33 31 31 32 35 39 40 40 54 53 51 50 50 53 60 64 64 63 63 62 63 66 72 81 82
68 66 82 91 58 66 41 25 25 25 25 24 26 24 27 27 35 38 36 35 34 34 37 42 43 45 54 55 54 53 53 54 61 65 66 66 67 67 66 66 68 73 76 82
55 75 93 92 87 52 33 28 28 30 31 25 24 25 25 24 41 39 32 33 36 38 41 42 45 50 55 55 56 58 58 62 64 68 70 69 67 66 66 66 68 75 79 85
50 66 85 94 94 84 48 25 22 23 47 27 25 29 28 27 53 54 36 31 36 35 41 44 46 51 54 58 58 59 63 71 73 74 72 70 70 69 66 66 75 78 80 86
69 82 87 96 90 73 37 22 26 48 48 32 29 32 32 37 51 42 34 32 28 36 40 42 45 50 55 57 60 63 66 71 74 76 76 72 72 68 73 77 75 78 80 84
65 78 91 86 90 88 40 26 38 44 35 38 36 38 43 50 46 40 34 33 30 32 38 42 46 48 57 61 64 70 69 66 69 70 72 73 74 76 80 79 83 85 87 89
69 67 82 74 74 50 36 31 40 39 37 32 37 38 44 48 39 34 35 33 31 36 41 45 50 54 58 64 69 68 69 71 73 72 77 76 78 78 80 83 83 87 84 85
45 45 71 57 50 46 41 32 37 35 34 32 32 36 44 44 37 33 35 36 37 39 47 51 55 60 64 68 70 68 71 73 74 75 74 75 77 78 80 82 82 84 84 89
55 45 54 59 45 41 37 32 36 34 31 31 30 30 42 40 33 36 40 40 42 48 50 53 56 61 64 66 68 67 65 68 72 72 74 76 77 77 83 84 87 87 86 87
45 53 57 71 45 47 41 34 36 37 32 30 32 35 37 29 35 34 43 42 48 49 51 51 54 57 60 62 64 62 62 64 66 69 74 80 86 82 85 92 89 86 88 86
Wind_Speed
7 9 6 7 6 5 2 1 5 6 9 8 6 15 14 15 18 18 19 19 19 20 28 35 39 40 43 47 46 42 34 16 39 33 33 34 31 35 29 31 40 33 39 38
7 7 3 6 7 6 6 6 6 4 6 2 14 13 12 15 14 14 15 16 18 20 22 34 37 39 39 40 42 44 42 32 25 37 38 36 39 38 40 32 33 39 36 39
6 5 4 2 10 7 6 6 3 2 7 4 15 7 10 11 12 14 14 13 16 17 19 22 34 36 38 39 40 41 39 40 21 31 33 28 30 29 31 35 36 33 40 41
6 4 2 4 7 3 3 5 2 4 2 2 4 3 7 7 11 13 15 15 13 15 17 24 31 36 37 36 37 38 40 43 42 15 20 33 29 28 26 31 35 39 34 42
2 6 6 7 0 2 3 2 7 7 5 3 8 5 1 5 11 12 12 12 11 14 14 17 27 30 32 37 36 36 37 42 46 41 16 18 12 30 31 28 32 41 44 39
6 6 4 2 6 4 7 5 7 6 3 2 3 3 4 5 7 6 7 8 8 11 13 20 24 30 34 39 39 36 37 39 41 42 40 32 31 19 15 24 18 19 36 40
6 6 5 4 5 2 9 6 4 4 3 3 4 6 4 4 5 5 4 4 4 4 7 9 18 24 31 35 36 35 36 36 38 39 40 39 36 33 27 22 14 16 11 16
5 2 3 1 2 1 3 5 4 3 1 1 8 1 2 5 5 2 4 4 5 1 4 3 9 16 23 28 28 33 32 33 32 36 34 38 37 37 33 30 27 21 27 33
4 3 6 5 3 3 3 4 2 2 1 1 3 1 2 4 6 4 4 5 3 4 5 6 7 11 15 21 29 28 28 29 31 29 32 33 33 33 32 33 30 30 26 25
2 4 6 5 2 3 7 1 2 3 2 1 3 2 2 5 5 6 7 8 8 7 5 5 3 5 5 11 16 22 23 24 24 29 28 27 28 32 32 32 31 30 28 28
2 4 2 4 2 4 2 3 4 2 2 3 1 2 5 7 8 8 10 10 9 10 8 7 9 6 2 7 13 19 26 23 25 25 26 28 27 27 33 33 34 30 24 23
2 3 4 4 5 5 3 3 5 4 4 1 4 4 3 9 9 8 8 8 7 8 8 11 14 11 7 0 5 11 18 26 27 25 26 27 27 27 29 30 30 28 31 24
4 1 3 2 3 3 4 5 6 5 3 3 4 4 7 6 6 5 5 4 6 7 5 5 13 14 15 8 3 4 14 21 25 22 25 25 28 28 28 29 22 32 31 31
4 2 4 6 4 5 5 8 8 7 3 3 5 5 8 7 6 4 5 7 7 7 7 6 8 10 11 13 17 15 22 24 26 20 17 22 24 27 28 32 28 31 30 30
2 3 3 3 3 1 2 6 11 9 7 4 4 5 11 8 7 5 6 7 8 7 7 6 6 12 16 15 12 17 21 23 23 20 19 23 23 27 28 30 29 31 34 30
1 2 3 5 4 7 7 8 8 8 11 11 8 4 8 8 7 6 6 8 7 6 6 7 9 13 14 18 13 17 20 23 25 24 24 25 27 27 30 29 26 31 33 31
6 3 3 3 3 1 6 14 14 9 8 6 5 6 6 6 7 5 8 8 7 6 6 6 8 13 16 18 20 21 21 20 21 22 21 24 26 27 27 28 29 30 29 31
7 5 3 2 4 1 7 3 16 12 8 8 7 9 9 8 8 9 7 8 7 6 5 7 12 14 16 18 20 20 20 20 18 21 22 23 24 25 24 25 26 27 29 28
8 5 2 4 3 6 5 7 6 11 10 9 8 11 10 8 9 5 8 7 7 6 9 10 9 9 13 16 15 17 19 20 22 21 21 22 23 25 24 24 22 23 29 28
8 6 4 2 4 6 6 6 7 4 4 6 9 11 9 8 4 3 7 8 8 9 11 9 7 6 8 7 11 13 15 18 18 21 26 26 27 26 26 24 21 25 26 22
5 2 6 3 3 7 8 5 8 6 7 7 9 10 8 5 5 7 8 8 10 10 11 8 5 6 5 6 7 10 15 18 19 20 21 25 24 28 21 23 29 31 28 25
9 7 4 4 2 8 9 6 11 6 2 7 9 7 9 13 9 8 8 7 9 8 9 8 8 7 7 9 10 11 14 16 18 21 21 20 25 24 25 29 30 28 25 25
5 7 6 9 7 6 3 5 5 6 8 5 9 8 8 10 7 8 7 7 9 10 10 10 10 10 11 13 13 15 16 16 19 21 20 22 22 23 26 24 26 25 26 25
4 9 4 4 8 12 6 7 8 7 6 8 7 8 8 8 8 7 7 8 10 10 10 9 9 10 11 13 14 14 15 17 17 19 21 22 23 26 24 25 24 23 25 24
6 13 7 4 6 7 7 7 9 9 8 8 9 7 8 9 8 7 6 10 11 10 8 7 7 7 8 12 12 13 16 16 18 21 22 22 24 26 27 25 24 25 26 26
6 7 8 5 7 6 5 8 9 11 9 10 9 7 9 12 8 12 10 12 11 6 3 1 1 2 5 9 11 14 15 16 21 21 22 22 24 26 24 24 27 25 26 29
Wind_Direction
36 76 58 25 23 45 21 26 38 22 37 48 28 68 49 44 39 28 25 17 13 15 6 4 7 8 6 10 7 3 0 258 189 189 191 198 201 210 222 215 214 218 213 214
45 75 33 299 56 6 304 76 34 4 353 230 96 77 66 40 52 39 27 12 7 4 7 7 5 6 10 8 6 5 1 352 230 191 196 199 201 205 212 224 218 217 217 215
107 120 235 312 67 352 44 88 74 254 280 250 126 78 67 52 33 39 34 22 12 3 2 10 9 7 9 11 7 3 1 1 344 226 205 203 204 205 211 219 225 221 223 223
107 176 289 114 71 39 174 89 339 277 320 217 95 175 53 35 22 29 22 12 12 358 7 5 5 5 9 9 10 9 9 9 5 319 248 196 194 207 206 215 219 223 227 225
118 85 40 64 45 16 248 256 226 248 257 49 336 77 245 14 16 355 25 5 4 356 6 7 6 1 4 11 12 12 14 16 15 20 5 3 279 218 222 222 215 220 223 230
119 109 72 274 286 188 259 310 259 219 192 58 303 93 341 8 322 334 4 359 2 357 359 357 2 7 6 10 9 13 18 20 20 21 22 23 20 11 256 241 268 246 225 220
156 142 138 359 45 23 43 18 9 27 42 211 145 54 232 277 315 303 307 346 356 2 354 350 355 4 6 4 6 10 13 18 22 23 25 22 26 26 26 15 350 356 327 237
148 140 142 82 38 4 43 84 126 150 104 224 55 42 187 211 221 313 287 255 244 92 294 320 11 9 7 8 358 9 10 14 17 24 23 26 27 30 24 19 19 18 4 6
127 112 112 98 348 57 338 60 262 111 263 94 120 89 192 241 214 226 279 266 244 224 284 330 34 47 21 14 4 3 6 11 14 21 26 24 26 27 25 27 24 20 30 9
27 119 165 125 208 77 113 58 70 4 90 311 113 99 216 216 239 235 245 250 258 211 223 268 279 310 78 43 31 18 6 9 11 18 23 25 24 27 26 24 25 28 27 19
94 98 156 122 146 134 127 93 64 110 132 154 154 225 193 195 212 223 233 229 239 202 206 211 216 255 103 50 48 36 21 7 8 10 16 20 23 23 24 19 19 22 20 16
48 128 144 136 94 90 96 144 124 120 267 195 144 257 203 191 210 220 205 215 258 181 199 209 215 223 238 344 38 26 27 17 9 9 13 17 17 17 21 17 12 9 17 11
189 286 92 59 29 171 201 193 136 133 114 213 130 252 229 209 177 145 94 48 64 81 137 202 212 223 241 237 291 343 11 8 356 349 6 11 14 14 9 8 5 15 8 8
58 232 161 175 181 155 186 167 172 155 134 204 215 174 194 186 118 94 71 73 72 72 62 51 38 58 44 28 24 37 15 7 354 2 1 15 13 8 2 1 3 5 6 4
98 195 243 284 58 125 252 204 189 173 203 161 246 186 167 147 137 133 98 87 59 48 50 40 32 31 27 17 21 18 11 1 357 3 28 16 11 5 0 358 356 358 360 4
241 247 86 341 304 294 244 244 245 222 199 210 229 81 133 151 137 100 89 93 74 54 48 39 32 31 13 4 30 24 17 10 17 24 21 13 6 3 2 5 0 357 356 356
141 125 83 259 182 311 323 226 222 217 225 189 189 175 149 115 105 117 93 87 79 58 47 36 33 17 7 39 22 14 12 14 17 22 14 7 1 356 356 356 356 357 356 350
139 134 95 187 33 341 242 194 204 208 210 198 134 146 131 125 105 102 102 97 83 73 57 45 22 17 53 33 19 12 11 13 24 15 3 357 352 349 350 351 351 347 346 345
142 133 118 136 201 278 288 223 183 180 230 183 181 142 139 129 99 84 105 106 110 105 91 57 22 59 49 23 13 11 9 7 5 3 356 348 345 340 340 341 343 345 343 340
149 138 119 96 156 218 240 148 145 115 256 207 152 153 143 130 117 210 118 111 111 110 99 70 30 63 49 47 11 7 11 15 3 354 345 342 339 339 338 335 345 341 341 334
169 71 160 164 225 280 264 166 98 111 230 192 155 143 136 125 156 165 124 117 111 111 105 84 50 44 85 30 29 19 0 353 344 340 334 337 342 338 340 343 339 338 336 330
168 159 169 180 174 268 227 158 158 208 22 126 117 122 115 127 132 141 132 120 110 101 93 76 49 35 58 43 27 14 352 337 331 332 331 330 336 338 337 340 338 337 332 327
179 180 173 180 205 239 250 166 148 117 123 100 112 126 126 129 140 133 125 120 105 94 83 59 40 26 26 20 12 355 338 332 333 334 333 332 330 333 336 334 329 326 327 324
215 178 180 122 242 249 260 160 139 130 131 127 120 131 130 143 139 135 127 116 99 83 74 56 40 29 17 9 357 345 334 331 331 331 334 331 331 329 329 326 325 322 321 317
187 168 193 225 270 183 229 158 159 144 138 136 140 145 152 136 143 133 127 117 106 90 67 51 43 26 4 349 345 341 335 333 333 330 330 328 327 328 324 322 320 318 316 313
187 166 184 217 198 164 202 179 163 158 161 152 142 138 137 136 141 132 126 123 117 106 100 86 44 331 330 341 334 343 338 333 331 328 328 327 325 326 324 319 318 319 315 315